Вернуться в каталог

COSMOS 1275

АктивенНавигацияPO
NORAD 12504·PAYLOAD·🇷🇺 Russia

Запущен Jun 4, 1981 с Plesetsk Cosmodrome

Loading…

Ближайшие Пролёты (ближайшие 24 часа)

TLE

СвежийSource: Space-Track

Эпоха: Sep 14, 2026, 13:33 UTC

1 12504U 81053A   26257.56484354  .00000044  00000-0  30955-4 0  9994
2 12504  82.9627 199.4618 0038369 290.7032  69.0013 13.74538283271551

Отслеживайте COSMOS 1275 в реальном времени с AllMySat

Download on the App Store